Home > Time Zones > World Clock > Weather > Palau > Koror > Past weeks

Flag for Palau Weather past 2 weeks in Koror, Palau

Now
84 °F

Broken clouds.


Feels Like: 94 °F
Forecast: 80 / 89 °F
Wind: 3 mph from Northwest

Location: Koror / Palau Island

Current Time: May 4, 2015 at 6:15:50 PM

Latest Report: May 4, 2015 at 5:55 PM


Visibility: 15 mi

Pressure: 29.76 "Hg

Humidity: 79%

Dew point: 77 °F

Location of KororLocation

Historic Weather in Koror — Graph

°F

Koror temperature yesterday

Maximum temperature yesterday: 86 °F (at 8:50 AM)
Minimum temperature yesterday: 79 °F (at 12:50 AM)
Average temperature yesterday: 82 °F

Past Weeks' High & Low Weather Summary

 TemperatureHumidityPressure
High90 °F (Apr 20, 12:50 PM)100% (Apr 29, 3:50 AM)29.90 "Hg (Apr 29, 3:50 AM)
Low75 °F (Apr 29, 3:50 AM)59% (Apr 20, 12:50 PM)29.73 "Hg (Apr 25, 3:50 PM)
Average82 °F84%29.82 "Hg
* Reported Apr 19 4:50 PM — May 4 4:55 PM, Koror, Weather by CustomWeather, © 2015

Note: Actual official high and low records may vary slightly from our data, if they occured in-between our weather recording intervals... More about our weather records

Advertising

Koror weather history for previous 24 hours

 ConditionsComfort  
Time TempWeatherWind HumidityBarometerVisibility
4:55 PM
Mon, May 4
86 °FBroken clouds.6 mph75%29.75 "Hg15 mi
3:50 PM88 °FSprinkles. Broken clouds.7 mph75%29.74 "Hg14 mi
2:50 PM88 °FPartly sunny.6 mph70%29.76 "Hg15 mi
1:50 PM90 °FBroken clouds.10 mph71%29.77 "Hg15 mi
12:50 PM88 °FBroken clouds.6 mph66%29.78 "Hg15 mi
11:50 AM88 °FPartly sunny.10 mph75%29.81 "Hg14 mi
10:50 AM86 °FPartly sunny.8 mph79%29.82 "Hg14 mi
9:50 AM84 °FPartly sunny.6 mph84%29.83 "Hg14 mi
8:50 AM84 °FPartly sunny.3 mph79%29.84 "Hg15 mi
7:52 AM82 °FBroken clouds.3 mph89%29.83 "Hg15 mi
6:51 AM81 °FBroken clouds.No wind89%29.81 "Hg15 mi
5:52 AM77 °FBroken clouds.No wind94%29.79 "Hg15 mi
4:51 AM79 °FPartly cloudy.No wind94%29.78 "Hg15 mi
3:52 AM79 °FPartly cloudy.No wind94%29.79 "Hg15 mi
2:51 AM79 °FPartly cloudy.No wind94%29.79 "Hg15 mi
1:55 AM79 °FPartly cloudy.No wind94%29.81 "Hg15 mi
12:54 AM79 °FPartly cloudy.No wind94%29.82 "Hg14 mi
11:50 PM
Sun, May 3
79 °FPartly cloudy.No wind94%29.84 "Hg14 mi
10:50 PM81 °FPartly cloudy.3 mph89%29.85 "Hg14 mi
9:50 PM79 °FPassing clouds.No wind94%29.84 "Hg14 mi
8:50 PM81 °FPassing clouds.No wind89%29.82 "Hg14 mi
7:50 PM81 °FPartly cloudy.No wind89%29.81 "Hg14 mi
6:50 PM82 °FPartly cloudy.3 mph84%29.80 "Hg14 mi
Weather by CustomWeather, © 2015

See weather overviewHow to use our weather pages